{"data":{"norad_id":69129,"epoch":"2026-09-19T23:29:20.592384Z","epoch_age_seconds":68143,"freshness":"FRESH","line1":"1 69129U 26110F   26262.97871056  .00024751  00000+0  76605-3 0  9993","line2":"2 69129  97.2850  98.0009 0001360  68.7937 291.3451 15.33462315 20130","mean_motion":15.33462315,"eccentricity":0.000136,"inclination_deg":97.285,"raan_deg":98.0009,"arg_perigee_deg":68.7937,"mean_anomaly_deg":291.3451,"bstar":0.00076605,"rev_number":2013,"period_min":93.90514432042,"perigee_km":464.56092420758,"apogee_km":466.42239120247,"semimajor_km":6843.628657705,"source":"CELESTRAK","updated_at":"2026-09-20T09:00:44.085178Z"}}